[[{"header":{"parameterUnit":"m.s-1","parameterCategory":1,"la1":30.2991,"la2":30.254,"lo1":-89.0895,"lo2":-89.0444,"dy":0.0017,"dx":0.0017,"nx":28,"ny":28,"refTime":"2025-01-11T09:00:00:Z","depth":0,"parameterNumber":2,"parameterNumberName":"U-component_of_WINDS"},"data":[0,0,0,0,0,0,0,0,0,0,0,0,0,0,0,0,0,0,0,0,0,0,0,0,0,0,0,0,0,0,0,0,0,0,0,0,0,0,0,0,0,0,0,0,0,0,0,0,0,0,0,0,0,0,0,0,0,0,-7.4742,-7.4743,0,-7.4775,-7.4775,-7.4776,-7.4566,-7.456,-7.4554,-7.4549,-7.4581,-7.4587,-7.4593,0,0,0,0,0,0,0,0,0,0,0,0,0,-7.4497,-7.4503,-7.4742,-7.4743,-7.4743,-7.4775,-7.4775,-7.4776,-7.4567,-7.456,-7.4553,-7.4546,-7.4579,-7.4586,-7.4594,0,0,0,0,0,0,0,0,0,0,0,0,0,-7.4574,-7.4504,-7.4742,-7.4643,-7.4634,-7.4775,-7.4775,-7.4776,-7.4569,-7.456,-7.4551,-7.4543,-7.4576,-7.4585,-7.4595,-7.4832,0,0,-7.4624,-7.4628,0,0,0,0,0,0,0,0,-7.457,-7.4583,-7.4657,-7.465,-7.4641,-7.4657,-7.47,-7.4795,-7.4571,-7.4594,-7.4549,-7.4538,-7.4613,-7.4619,-7.4645,-7.4833,-7.4834,-7.4625,-7.4631,-7.4635,-7.4637,0,0,0,0,0,0,0,-7.4565,-7.4581,-7.4755,-7.4659,-7.4649,-7.4596,-7.4597,-7.4717,-7.4653,-7.4591,-7.4576,-7.4583,-7.4607,-7.4636,-7.4644,-7.4835,-7.4625,-7.4633,-7.4639,-7.4643,-7.5219,-7.5228,0,0,0,0,0,0,-7.4573,-7.4578,-7.4754,-7.4756,-7.4583,-7.4608,-7.4609,-7.4661,-7.4651,-7.4641,-7.459,-7.4573,-7.4624,-7.4633,-7.4644,-7.4922,-7.4635,-7.4644,-7.4649,-7.5209,-7.5221,-7.5231,0,0,0,0,0,0,-7.4569,-7.4591,-7.4753,-7.4663,-7.4679,-7.4621,-7.4682,-7.4666,-7.4695,-7.465,-7.4638,-7.4632,-7.4618,-7.4631,-7.4787,-7.492,-7.4648,-7.4657,-7.5198,-7.5213,-7.5226,-7.5479,0,0,0,0,0,0,-7.4563,-7.4591,-7.4681,-7.4666,-7.4685,-7.4897,-7.469,-7.4673,-7.4713,-7.469,-7.4686,-7.4677,-7.4612,-7.4774,-7.4796,-7.4928,-7.4664,-7.5186,-7.5205,-7.5222,-7.5459,-7.55,-7.5536,0,0,0,0,0,-7.4555,-7.475,-7.4686,-7.4709,-7.4797,-7.4905,-7.4915,-7.4836,-7.4724,-7.4814,-7.4785,-7.4677,-7.4901,-7.4791,-7.4815,-7.4952,-7.5177,-7.5199,-7.522,-7.5441,-7.5492,-7.5535,0,0,0,0,0,0,-7.4781,-7.4746,-7.4676,-7.4872,-7.4893,-7.4869,-7.498,-7.4892,-7.4945,-7.4922,-7.482,-7.4821,-7.4995,-7.4988,-7.4866,-7.518,-7.502,-7.5047,-7.5179,-7.5227,-7.5265,-7.5265,-7.4672,0,0,0,0,0,-7.4854,-7.4945,-7.4909,-7.5087,-7.5101,-7.504,-7.5083,-7.5021,-7.5037,-7.5045,-7.5027,-7.5048,-7.5122,-7.5174,-7.524,-7.5455,-7.5452,-7.5561,-7.56,-7.5632,-7.5658,-7.5772,-7.582,-7.5302,-7.5302,-7.5302,0,0,-7.5006,-7.4998,-7.5062,-7.5132,-7.5141,-7.5237,-7.5048,-7.5158,-7.5228,-7.5061,-7.5208,-7.5196,-7.5211,-7.5399,-7.548,-7.5399,-7.5799,-7.5659,-7.5685,-7.5693,-7.5799,-7.5848,-7.5892,-7.5317,-7.5314,-7.5312,0,0,-7.5332,-7.5335,-7.5484,-7.5496,-7.5512,-7.5469,-7.5505,-7.5494,-7.548,-7.5626,-7.5503,-7.5584,-7.5715,-7.5731,-7.5757,-7.6089,-7.5992,-7.6113,-7.6316,-7.6429,-7.647,-7.6506,-7.6626,-7.667,-7.6138,-7.6139,-7.6139,0,-7.5519,-7.566,-7.5571,-7.569,-7.5724,-7.5577,-7.5727,-7.5743,-7.578,-7.5807,-7.5714,-7.5876,-7.5876,-7.6065,-7.6147,-7.6171,-7.6209,-7.6114,-7.6471,-7.6506,-7.6538,-7.6652,-7.6697,-7.6153,-7.6152,-7.615,-7.6149,0,-7.5889,-7.5989,-7.6107,-7.6147,-7.6194,-7.6328,-7.6259,-7.6317,-7.625,-7.6217,-7.6368,-7.6362,-7.6425,-7.6464,-7.64,-7.6646,-7.6595,-7.6489,-7.6325,-7.6604,-7.6709,-7.6752,-7.6175,-7.6169,-7.6165,-7.6161,0,0,-7.6362,-7.6351,-7.6396,-7.6413,-7.6418,-7.6493,-7.6619,-7.6682,-7.6735,-7.6764,-7.6868,-7.6981,-7.6883,-7.6913,-7.6847,-7.6946,-7.7212,-7.6827,-7.6826,-7.6901,-7.7484,-7.7566,-7.7618,-7.7146,-7.7154,-7.716,-7.7484,0,-7.6683,-7.69,-7.6823,-7.7044,-7.7136,-7.6997,-7.7106,-7.7122,-7.7094,-7.7167,-7.7135,-7.7218,-7.7081,-7.7098,-7.7189,-7.7161,-7.7328,-7.7135,-7.7243,-7.7248,-7.7247,-7.7673,-7.776,-7.8065,-7.7524,-7.7531,-7.7536,0,-7.7087,-7.7134,-7.7365,-7.7356,-7.7391,-7.7492,-7.7543,-7.7613,-7.7627,-7.76,-7.7633,-7.7547,-7.7669,-7.7504,-7.7672,-7.7543,-7.7582,-7.7574,-7.7584,-7.7593,-7.7411,-7.7696,-7.8161,-7.8208,-7.7599,-7.7594,-7.7589,0,-7.7412,-7.7532,-7.7686,-7.7704,-7.7696,-7.7771,-7.7771,-7.7776,-7.7818,-7.7862,-7.7888,-7.7945,-7.7978,-7.8024,-7.7955,-7.7841,-7.8134,-7.7962,-7.8115,-7.8118,-7.8186,-7.8183,-7.8666,-7.8207,-7.8206,-7.8205,-7.8204,0,-7.778,-7.7927,-7.7832,-7.7928,-7.8089,-7.7997,-7.8159,-7.8143,-7.8149,-7.8238,-7.8119,-7.8205,-7.8108,-7.8185,-7.8131,-7.8279,-7.8294,-7.8276,-7.826,-7.8288,-7.8291,-7.8315,-7.8293,-7.8217,-7.8215,-7.8212,-7.821,0,-7.8171,-7.8113,-7.8273,-7.8252,-7.825,-7.837,-7.8352,-7.8439,-7.8401,-7.8516,-7.8537,-7.848,-7.8564,-7.8499,-7.8581,-7.8545,-7.8742,-7.8695,-7.8738,-7.8727,-7.8884,-7.8872,-7.9402,-7.9467,-7.8964,-7.8969,-7.8973,0,-7.8412,-7.8522,-7.8514,-7.8566,-7.8573,-7.8658,-7.8701,-7.8614,-7.8663,-7.8687,-7.8772,-7.8846,-7.8901,-7.9042,-7.9007,-7.9069,-7.9024,-7.9206,-7.9033,-7.9058,-7.903,-7.9026,-7.9037,-7.9242,-7.9248,-7.9253,-7.9257,0,-7.8846,-7.8811,-7.8878,-7.8936,-7.899,-7.9031,-7.9062,-7.9111,-7.9022,-7.9084,-7.9169,-7.9212,-7.9296,-7.9371,-7.9421,-7.9419,-7.9326,-7.9311,-7.935,-7.9382,-7.9403,-7.9396,-7.8837,-7.93,-7.9296,-7.9292,-7.929,-7.9288,-7.917,-7.9263,-7.9272,-7.935,-7.9364,-7.9396,-7.9477,-7.945,-7.952,-7.9582,-7.9526,-7.9629,-7.9638,-7.9696,-7.9706,-7.9785,-7.971,-7.9766,-7.9781,-7.9797,-7.9821,-7.9388,-7.9793,-7.9792,-7.9791,-7.979,-7.9789,0,-7.96,-7.9599,-7.9672,-7.9719,-7.9781,-7.9685,-7.9714,-7.9772,-7.9865,-7.9882,-7.9939,-8.0037,-8.0109,-8.0079,-8.0143,-8.0212,-8.017,-8.0232,-8.0227,-8.0229,-7.9883,-7.9844,-8.0265,-8.0264,-8.0264,-8.0264,-8.0264,-8.0264,-7.9832,-7.9983,-7.995,-8.0107,-8.0103,-8.0204,-8.0229,-8.0257,-8.0271,-8.0386,-8.0446,-8.0426,-8.0425,-8.0487,-8.0549,-8.0538,-8.0568,-8.0647,-8.0621,-8.03,-8.0253,-8.0208,-8.0171,-8.0653,-8.0654,-8.096,-8.0963,-8.0965]},{"header":{"parameterUnit":"m.s-1","parameterCategory":1,"la1":30.2991,"la2":30.254,"lo1":-89.0895,"lo2":-89.0444,"dy":0.0017,"dx":0.0017,"nx":28,"ny":28,"refTime":"2025-01-11T09:00:00:Z","depth":0,"parameterNumber":3,"parameterNumberName":"V-component_of_WINDS"},"data":[0,0,0,0,0,0,0,0,0,0,0,0,0,0,0,0,0,0,0,0,0,0,0,0,0,0,0,0,0,0,0,0,0,0,0,0,0,0,0,0,0,0,0,0,0,0,0,0,0,0,0,0,0,0,0,0,0,0,-6.3621,-6.3621,0,-6.3565,-6.3564,-6.3563,-6.3384,-6.338,-6.3376,-6.3372,-6.3319,-6.3321,-6.3324,0,0,0,0,0,0,0,0,0,0,0,0,0,-6.3578,-6.358,-6.3621,-6.3621,-6.362,-6.3565,-6.3564,-6.3563,-6.3384,-6.338,-6.3375,-6.337,-6.3318,-6.3321,-6.3324,0,0,0,0,0,0,0,0,0,0,0,0,0,-6.3567,-6.3581,-6.3622,-6.3524,-6.3515,-6.3565,-6.3564,-6.3563,-6.3385,-6.3379,-6.3373,-6.3368,-6.3317,-6.3321,-6.3324,-6.3466,0,0,-6.3335,-6.3336,0,0,0,0,0,0,0,0,-6.3568,-6.3569,-6.3539,-6.3531,-6.352,-6.3475,-6.3529,-6.3531,-6.3387,-6.3435,-6.3372,-6.3365,-6.3376,-6.3374,-6.3377,-6.3463,-6.3461,-6.3335,-6.3337,-6.3339,-6.334,0,0,0,0,0,0,0,-6.3569,-6.3571,-6.3599,-6.3539,-6.3528,-6.3484,-6.3476,-6.3529,-6.344,-6.343,-6.3417,-6.3412,-6.337,-6.3374,-6.3375,-6.346,-6.3335,-6.3338,-6.334,-6.3342,-6.366,-6.3666,0,0,0,0,0,0,-6.3583,-6.3572,-6.3601,-6.3597,-6.353,-6.349,-6.3481,-6.3496,-6.3439,-6.3424,-6.3418,-6.3404,-6.3371,-6.3371,-6.3372,-6.3534,-6.3339,-6.3342,-6.3344,-6.3654,-6.3662,-6.3668,0,0,0,0,0,0,-6.3583,-6.3588,-6.3603,-6.3581,-6.358,-6.3497,-6.3515,-6.3498,-6.3502,-6.3429,-6.3413,-6.3438,-6.3366,-6.3367,-6.3443,-6.353,-6.3343,-6.3347,-6.3646,-6.3656,-6.3665,-6.3861,0,0,0,0,0,0,-6.3583,-6.3589,-6.3641,-6.3584,-6.3582,-6.3675,-6.3521,-6.3501,-6.3508,-6.349,-6.3444,-6.3431,-6.3362,-6.3439,-6.3447,-6.3532,-6.3349,-6.3638,-6.3651,-6.3662,-6.3847,-6.3876,-6.3902,0,0,0,0,0,-6.3582,-6.3699,-6.3644,-6.3649,-6.3645,-6.3681,-6.3679,-6.3596,-6.3515,-6.3568,-6.3521,-6.3432,-6.3519,-6.3449,-6.3456,-6.3543,-6.3632,-6.3647,-6.3661,-6.3834,-6.3871,-6.3901,0,0,0,0,0,0,-6.3771,-6.369,-6.3628,-6.3731,-6.3714,-6.365,-6.3714,-6.3637,-6.3644,-6.3627,-6.3524,-6.3516,-6.3607,-6.3582,-6.3505,-6.3677,-6.3561,-6.3578,-6.369,-6.3724,-6.3751,-6.3756,-6.3352,0,0,0,0,0,-6.3824,-6.3858,-6.3786,-6.3884,-6.3878,-6.3798,-6.381,-6.3747,-6.3726,-6.3718,-6.3677,-6.3662,-6.3685,-6.3703,-6.372,-6.3841,-6.383,-6.3905,-6.3932,-6.3955,-6.3972,-6.4034,-6.4067,-6.3716,-6.3715,-6.3715,0,0,-6.3936,-6.3896,-6.3924,-6.3921,-6.39,-6.3939,-6.3793,-6.3841,-6.3869,-6.3726,-6.3795,-6.3765,-6.374,-6.384,-6.3882,-6.3822,-6.4066,-6.3974,-6.3992,-6.3996,-6.4053,-6.4086,-6.4116,-6.3725,-6.3724,-6.3722,0,0,-6.4159,-6.4132,-6.4209,-6.4191,-6.4161,-6.4106,-6.4126,-6.4073,-6.4047,-6.4114,-6.4008,-6.404,-6.4083,-6.407,-6.4069,-6.4286,-6.4205,-6.4295,-6.4439,-6.4502,-6.453,-6.4554,-6.4633,-6.4662,-6.431,-6.4311,-6.4311,0,-6.4302,-6.4355,-6.426,-6.4314,-6.4316,-6.4186,-6.4265,-6.4253,-6.4231,-6.4236,-6.4169,-6.4219,-6.4193,-6.4289,-6.4341,-6.4344,-6.4364,-6.43,-6.4533,-6.4556,-6.4577,-6.4651,-6.4681,-6.4322,-6.4321,-6.432,-6.4319,0,-6.4532,-6.4571,-6.4638,-6.4618,-6.4627,-6.4694,-6.461,-6.4632,-6.4567,-6.4521,-6.4592,-6.4556,-6.4564,-6.4582,-6.452,-6.4669,-6.4633,-6.4551,-6.4433,-6.4624,-6.4692,-6.4719,-6.4338,-6.4334,-6.4331,-6.4328,0,0,-6.4876,-6.48,-6.4827,-6.4816,-6.4772,-6.4801,-6.4862,-6.4868,-6.4889,-6.4878,-6.4927,-6.4966,-6.4889,-6.4888,-6.4824,-6.4879,-6.5055,-6.479,-6.4788,-6.4842,-6.5218,-6.5281,-6.5315,-6.5,-6.5005,-6.5009,-6.522,0,-6.5088,-6.5186,-6.5102,-6.5217,-6.5252,-6.5128,-6.5181,-6.5161,-6.5118,-6.5143,-6.5096,-6.5125,-6.5022,-6.502,-6.5069,-6.5023,-6.5129,-6.5006,-6.5047,-6.505,-6.5059,-6.535,-6.5417,-6.5619,-6.5246,-6.525,-6.5253,0,-6.5349,-6.5348,-6.5466,-6.5414,-6.5425,-6.5474,-6.5473,-6.5497,-6.5472,-6.5437,-6.5436,-6.5357,-6.5414,-6.5297,-6.5376,-6.5294,-6.5305,-6.5286,-6.5291,-6.5294,-6.5165,-6.5363,-6.5681,-6.5712,-6.5294,-6.5291,-6.5288,0,-6.559,-6.5618,-6.5691,-6.5686,-6.5626,-6.5664,-6.5642,-6.561,-6.5619,-6.5618,-6.5623,-6.563,-6.5635,-6.5643,-6.5568,-6.5489,-6.5657,-6.5533,-6.5632,-6.5634,-6.5674,-6.5673,-6.6001,-6.5679,-6.5679,-6.5678,-6.5678,0,-6.5837,-6.5915,-6.5798,-6.5844,-6.5928,-6.583,-6.5916,-6.588,-6.5853,-6.5891,-6.5785,-6.5823,-6.5721,-6.5749,-6.5691,-6.5766,-6.5768,-6.5743,-6.5727,-6.5754,-6.5758,-6.5762,-6.5747,-6.5686,-6.5684,-6.5683,-6.5681,0,-6.6121,-6.6046,-6.6118,-6.6055,-6.6041,-6.6106,-6.6052,-6.6093,-6.6042,-6.6092,-6.6098,-6.602,-6.6048,-6.5973,-6.599,-6.595,-6.6059,-6.602,-6.6068,-6.6056,-6.616,-6.6152,-6.6504,-6.6546,-6.6196,-6.6199,-6.6202,0,-6.6285,-6.6341,-6.6283,-6.63,-6.6282,-6.6311,-6.6318,-6.6225,-6.6238,-6.6213,-6.6257,-6.6275,-6.6285,-6.6335,-6.6281,-6.6294,-6.6255,-6.6377,-6.6256,-6.6281,-6.6259,-6.6257,-6.6263,-6.6403,-6.6407,-6.6411,-6.6414,0,-6.6584,-6.6543,-6.6557,-6.6559,-6.6571,-6.6569,-6.6559,-6.6579,-6.6478,-6.6499,-6.6524,-6.6532,-6.6548,-6.6568,-6.6568,-6.6546,-6.6465,-6.6452,-6.6475,-6.6504,-6.6531,-6.652,-6.6138,-6.6445,-6.6441,-6.6439,-6.6438,-6.6436,-6.6813,-6.6857,-6.6823,-6.6843,-6.6825,-6.6818,-6.6853,-6.6806,-6.6825,-6.6829,-6.6773,-6.6811,-6.6784,-6.6775,-6.6762,-6.6792,-6.6736,-6.677,-6.6779,-6.679,-6.6808,-6.6524,-6.6791,-6.679,-6.6789,-6.6788,-6.6788,0,-6.7108,-6.7079,-6.7098,-6.7086,-6.7102,-6.702,-6.7005,-6.7025,-6.7058,-6.7039,-6.705,-6.708,-6.7099,-6.7046,-6.7057,-6.7091,-6.7055,-6.7098,-6.7096,-6.7092,-6.6856,-6.6835,-6.7128,-6.7128,-6.7128,-6.7127,-6.7127,-6.7127,-6.7263,-6.7334,-6.729,-6.7351,-6.7321,-6.7356,-6.7354,-6.7348,-6.7332,-6.737,-6.7384,-6.7348,-6.7316,-6.7324,-6.7338,-6.7322,-6.7332,-6.7389,-6.7361,-6.7142,-6.7109,-6.7077,-6.7057,-6.7392,-6.7392,-6.7595,-6.7597,-6.7598]}]]